TimeMST,TemperatureF,Dew PointF,Humidity,Sea Level PressureIn,VisibilityMPH,Wind Direction,Wind SpeedMPH,Gust SpeedMPH,PrecipitationIn,Events,Conditions,WindDirDegrees,DateUTC
12:15 AM,48.2,44.6,87,30.04,10.0,SSW,5.8,-,N/A,,Overcast,210,2013-02-06 07:15:00
12:35 AM,48.2,44.6,87,30.04,10.0,SSE,6.9,-,N/A,,Overcast,160,2013-02-06 07:35:00
12:55 AM,48.2,44.6,87,30.05,7.0,SSW,9.2,-,0.01,Rain,Light Rain,200,2013-02-06 07:55:00
1:15 AM,48.2,44.6,87,30.05,7.0,SSW,9.2,-,N/A,Rain,Light Rain,200,2013-02-06 08:15:00
1:35 AM,48.2,44.6,87,30.06,10.0,SSW,8.1,-,N/A,,Overcast,200,2013-02-06 08:35:00
1:55 AM,48.2,42.8,82,30.07,10.0,SSW,9.2,-,N/A,,Overcast,210,2013-02-06 08:55:00
2:15 AM,48.2,42.8,82,30.08,10.0,South,6.9,-,N/A,,Overcast,190,2013-02-06 09:15:00
2:35 AM,48.2,42.8,82,30.07,10.0,South,4.6,-,N/A,,Overcast,170,2013-02-06 09:35:00
2:55 AM,48.2,44.6,87,30.07,7.0,South,6.9,-,N/A,,Drizzle,170,2013-02-06 09:55:00
3:15 AM,48.2,42.8,82,30.07,10.0,South,4.6,-,N/A,,Overcast,190,2013-02-06 10:15:00
3:35 AM,46.4,42.8,87,30.07,7.0,South,6.9,-,0.01,Rain,Light Rain,180,2013-02-06 10:35:00
3:55 AM,46.4,42.8,87,30.08,5.0,SW,9.2,-,0.03,Rain,Light Rain,230,2013-02-06 10:55:00
4:15 AM,46.4,42.8,87,30.08,10.0,SSW,6.9,-,N/A,,Mostly Cloudy,210,2013-02-06 11:15:00
4:35 AM,46.4,42.8,87,30.08,10.0,South,4.6,-,N/A,,Overcast,180,2013-02-06 11:35:00
4:55 AM,46.4,42.8,87,30.08,10.0,South,4.6,-,N/A,,Mostly Cloudy,170,2013-02-06 11:55:00
5:15 AM,44.6,41.0,87,30.08,10.0,SSE,5.8,-,N/A,,Mostly Cloudy,150,2013-02-06 12:15:00
5:35 AM,44.6,42.8,93,30.08,10.0,Calm,Calm,-,N/A,,Mostly Cloudy,0,2013-02-06 12:35:00
5:55 AM,46.4,42.8,87,30.08,10.0,Calm,Calm,-,N/A,,Overcast,0,2013-02-06 12:55:00
6:15 AM,44.6,41.0,87,30.08,10.0,Calm,Calm,-,N/A,,Overcast,0,2013-02-06 13:15:00
6:35 AM,44.6,42.8,93,30.07,10.0,Calm,Calm,-,N/A,,Overcast,0,2013-02-06 13:35:00
6:55 AM,44.6,42.8,93,30.07,10.0,Calm,Calm,-,N/A,,Overcast,0,2013-02-06 13:55:00
7:15 AM,44.6,42.8,93,30.07,7.0,Calm,Calm,-,N/A,Rain,Light Rain,0,2013-02-06 14:15:00
7:35 AM,44.6,42.8,93,30.07,4.0,SE,5.8,-,0.02,Rain,Rain,130,2013-02-06 14:35:00
7:55 AM,44.6,42.8,93,30.07,10.0,SE,4.6,-,0.02,,Overcast,140,2013-02-06 14:55:00
8:15 AM,44.6,42.8,93,30.07,10.0,SE,3.5,-,N/A,,Scattered Clouds,130,2013-02-06 15:15:00
8:35 AM,44.6,42.8,93,30.07,10.0,SE,4.6,-,N/A,,Mostly Cloudy,140,2013-02-06 15:35:00
8:55 AM,44.6,42.8,93,30.07,10.0,ESE,3.5,-,N/A,,Mostly Cloudy,120,2013-02-06 15:55:00
9:35 AM,44.6,42.8,93,30.08,5.0,SE,4.6,-,0.01,Rain,Light Rain,130,2013-02-06 16:35:00
9:55 AM,46.4,44.6,93,30.08,7.0,SE,5.8,-,0.01,,Overcast,140,2013-02-06 16:55:00
10:15 AM,46.4,42.8,87,30.07,7.0,SE,4.6,-,N/A,,Overcast,130,2013-02-06 17:15:00
10:35 AM,48.2,44.6,87,30.07,10.0,ESE,5.8,-,N/A,,Overcast,120,2013-02-06 17:35:00
10:55 AM,50.0,42.8,76,30.06,10.0,SE,4.6,-,N/A,,Overcast,130,2013-02-06 17:55:00
11:15 AM,50.0,42.8,76,30.06,10.0,SE,6.9,-,N/A,,Overcast,130,2013-02-06 18:15:00
11:35 AM,50.0,44.6,82,30.06,10.0,SSE,6.9,-,N/A,,Overcast,150,2013-02-06 18:35:00
11:55 AM,50.0,44.6,82,30.05,10.0,SSE,8.1,-,N/A,,Mostly Cloudy,150,2013-02-06 18:55:00
12:15 PM,50.0,44.6,82,30.05,10.0,SSE,9.2,-,N/A,,Overcast,160,2013-02-06 19:15:00
12:35 PM,50.0,44.6,82,30.04,10.0,South,8.1,-,N/A,,Overcast,170,2013-02-06 19:35:00
12:55 PM,50.0,44.6,82,30.03,7.0,South,10.4,17.3,N/A,,Drizzle,180,2013-02-06 19:55:00
1:15 PM,48.2,44.6,87,30.03,4.0,South,10.4,-,N/A,Rain,Light Rain,170,2013-02-06 20:15:00
1:35 PM,48.2,44.6,87,30.02,5.0,South,8.1,-,0.01,Rain,Light Rain,180,2013-02-06 20:35:00
1:55 PM,48.2,44.6,87,30.02,3.0,South,9.2,-,0.02,Rain,Rain,180,2013-02-06 20:55:00
2:15 PM,50.0,44.6,82,30.00,10.0,SSE,6.9,17.3,N/A,,Mostly Cloudy,160,2013-02-06 21:15:00
2:35 PM,50.0,44.6,82,29.99,10.0,SSE,4.6,-,N/A,,Overcast,150,2013-02-06 21:35:00
2:55 PM,50.0,42.8,76,29.98,10.0,South,8.1,-,N/A,,Overcast,170,2013-02-06 21:55:00
3:15 PM,50.0,42.8,76,29.97,10.0,South,9.2,17.3,N/A,,Overcast,170,2013-02-06 22:15:00
3:55 PM,50.0,42.8,76,29.96,10.0,SSE,10.4,-,N/A,,Overcast,160,2013-02-06 22:55:00
4:15 PM,50.0,42.8,76,29.95,10.0,SSE,8.1,-,N/A,Rain,Rain,160,2013-02-06 23:15:00
4:35 PM,50.0,42.8,76,29.95,7.0,South,11.5,20.7,N/A,,Drizzle,170,2013-02-06 23:35:00
4:55 PM,50.0,42.8,76,29.94,10.0,South,8.1,18.4,N/A,Rain,Light Rain,170,2013-02-06 23:55:00
5:15 PM,50.0,42.8,76,29.93,10.0,SSE,9.2,-,N/A,,Overcast,160,2013-02-07 00:15:00
5:35 PM,50.0,42.8,76,29.93,10.0,South,9.2,-,N/A,Rain,Rain,170,2013-02-07 00:35:00
5:55 PM,48.2,42.8,82,29.92,10.0,SSE,10.4,16.1,0.01,,Overcast,160,2013-02-07 00:55:00
6:15 PM,50.0,42.8,76,29.91,10.0,South,12.7,18.4,N/A,,Overcast,170,2013-02-07 01:15:00
6:35 PM,50.0,42.8,76,29.89,10.0,SE,10.4,18.4,N/A,,Overcast,130,2013-02-07 01:35:00
6:55 PM,50.0,41.0,71,29.89,10.0,SSE,9.2,18.4,N/A,,Overcast,160,2013-02-07 01:55:00
7:15 PM,50.0,41.0,71,29.88,10.0,SSE,9.2,-,N/A,,Overcast,160,2013-02-07 02:15:00
7:35 PM,50.0,41.0,71,29.86,10.0,SSE,10.4,-,N/A,,Overcast,160,2013-02-07 02:35:00
7:55 PM,50.0,41.0,71,29.86,10.0,SSE,8.1,-,N/A,,Overcast,150,2013-02-07 02:55:00
8:15 PM,50.0,41.0,71,29.84,10.0,SE,9.2,-,N/A,,Overcast,130,2013-02-07 03:15:00
8:35 PM,50.0,41.0,71,29.83,10.0,SE,13.8,17.3,N/A,,Overcast,130,2013-02-07 03:35:00
8:55 PM,48.2,41.0,76,29.83,10.0,SE,9.2,-,N/A,Rain,Light Rain,140,2013-02-07 03:55:00
9:15 PM,48.2,42.8,82,29.82,10.0,SE,4.6,-,0.01,Rain,Rain,140,2013-02-07 04:15:00
9:35 PM,46.4,42.8,87,29.82,7.0,South,4.6,-,0.04,Rain,Rain,180,2013-02-07 04:35:00
9:55 PM,46.4,42.8,87,29.83,7.0,WSW,6.9,-,0.09,Rain,Rain,240,2013-02-07 04:55:00
10:15 PM,44.6,39.2,81,29.86,4.0,SW,16.1,25.3,0.06,Rain,Rain,220,2013-02-07 05:15:00
10:35 PM,42.8,39.2,87,29.88,4.0,SSW,10.4,-,0.11,Rain,Rain,200,2013-02-07 05:35:00
10:55 PM,42.8,39.2,87,29.89,5.0,South,13.8,18.4,0.15,Rain,Rain,190,2013-02-07 05:55:00
11:35 PM,42.8,39.2,87,29.88,10.0,East,5.8,-,0.06,,Overcast,100,2013-02-07 06:35:00
11:55 PM,42.8,39.2,87,29.89,7.0,SE,3.5,-,0.07,Rain,Light Rain,140,2013-02-07 06:55:00